YAOGAN 20C

导读

YAOGAN 20C(遥感二十号C星)是中国于2014年8月9日发射的遥感卫星。作为我国遥感卫星系列的重要组成部分,它主要承担地球观测任务,可获取空间遥感信息,服务于国土资源勘察、农业估产、灾害监测、地理测绘等多个领域,同时也为科学研究提供数据支撑,助力我国空间对地观测体系的完善,推动遥感应用技术持续发展。

基本信息
目录编号:
40111
目录名称:
YAOGAN 20C
国际标识:
2014-047C
轨道中心:
EARTH
卫星名称:
YAOGAN 20C
卫星全名:
--
卫星状态:
在轨 (已飞行4325 天)
发射日期:
2014-08-09 UTC
国别 :
中国 (CN)
星等 :
--
轨道信息
数据来源 国际轨道数据 AOE轨道数据
星历时间 2026-06-12T15:10:34+0800
12小时前
查看轨道信息
2026-06-11T17:00:00+0800
1天前
查看轨道信息
半长轴 7467.182km 7467.181km
偏心率 0.0389669 0.0389551
轨道倾角 63.380° 63.383°
近地点辐角 15.073° 15.113°
升交点赤经 32.310° 34.695°
平近点角 346.153° 190.603°
近地点 798.072km 798.159km
远地点 1380.018km 1379.929km
周期 107.027分钟 107.027分钟
每日圈数 13.454503 13.454508
详细信息
使用方式:
暂无
2D轨道图
3D轨道图
轨道高度分析图
轨道倾角分析图
轨道综合分析图
查看轨道综合分析图